Weather in Dobrovolsk

Russia / Omsk Oblast     53°38′47″N   74°15′33″E
temp.,
°C
wind,
m/s
gust,
m/s
humid.,
%
clouds,
%
prec.,
mm/h
press.,
hPa
HPBL,
m
20 january, wed
wed2000:00−24ene339586 0.0 102722
03:00−24e349487 0.0 102769
06:00−23e479394 0.0 1026157
09:00−21ese5991100 0.0 1025242
12:00−20ese61191100 0.0 1024271
15:00−17ese71290100 0.1 1020361
18:00−16se71395100 1.2 1019483
21:00−15se61194100 0.4 1017320
21 january, thu
thu2100:00−14s489699 0.5 1017179
03:00−16wsw51192100 0.0 1018230
06:00−18wsw51191100 0.0 1019224
09:00−20sw5993100 0.0 1019141
12:00−19sw4893100 0.0 1020202
15:00−18sw4793100 0.0 1018237
18:00−18sw3594100 0.0 1016130
21:00−18wsw3593100 0.0 1015143
22 january, fri
fri2200:00−18w4793100 0.0 1014241
03:00−23wnw459681 0.0 101481
06:00−27w449840 0.0 101460
09:00−28w44980 0.0 101657
12:00−26w46963 0.0 1017159
15:00−25wsw47954 0.0 1018206
18:00−27wsw459726 0.0 101982
21:00−24wsw379799 0.0 1021156
23 january, sat
sat2300:00−22wsw3697100 0.1 1022240
03:00−22wsw349895 0.1 102487
06:00−24wsw339894 0.1 102522
09:00−27w239977 0.0 102819
12:00−25wnw239782 0.0 102965
15:00−26nw339780 0.0 103183
18:00−31nw349779 0.0 103346
21:00−33nw449686 0.0 103755
24 january, sun
sun2400:00−35nw449756 0.0 103853
03:00−37wnw34970 0.0 104140
06:00−38wnw34970 0.0 104233
09:00−39wnw23962 0.0 104418
12:00−36w12941 0.0 104569
15:00−34ssw22940 0.0 104529
18:00−35sse33930 0.0 104520
21:00−33sse469347 0.0 1044114